Location: Prairie Dale
(45.6972°N, 104.5033°W)
Time: 12:21:14
(UTC+00:00)

N. Korean satellite - Visible Passes

Search period start: 26 January 2022 00:00
Search period end: 05 February 2022 00:00
Orbit: 447 x 491 km, 97.3° (Epoch: 25 January)

Date Brightness Start Highest point End Pass type
(mag) Time Alt. Az. Time Alt. Az. Time Alt. Az.
26 Jan 7.1 12:03:56 10° NNE 12:07:32 58° E 12:08:05 51° SE visible
26 Jan 8.5 13:38:48 10° NW 13:40:12 12° WNW 13:41:36 10° W visible
27 Jan 8.8 11:35:08 10° NE 11:38:13 25° E 11:39:00 23° ESE visible
27 Jan 7.7 13:08:19 10° NNW 13:11:16 23° WNW 13:13:04 16° WSW visible
28 Jan 9.9 11:07:16 10° ENE 11:08:45 12° E 11:09:57 11° ESE visible
28 Jan 6.7 12:38:38 10° N 12:42:11 50° WNW 12:44:00 25° SW visible
29 Jan 6.8 12:09:20 10° NNE 12:12:58 68° E 12:14:58 25° S visible
29 Jan 8.6 13:44:55 10° NW 13:45:33 10° WNW 13:46:12 10° WNW visible
30 Jan 8.5 11:40:24 10° NNE 11:43:37 29° E 11:45:59 15° SSE visible
30 Jan 7.9 13:13:50 10° NNW 13:16:35 21° WNW 13:19:20 10° WSW visible
31 Jan 9.7 11:12:11 10° ENE 11:14:08 14° E 11:16:04 10° ESE visible
31 Jan 6.9 12:44:01 10° N 12:47:30 43° WNW 12:50:55 10° SW visible
01 Feb 6.6 12:14:36 10° NNE 12:18:16 80° ESE 12:21:52 10° S visible
02 Feb 8.2 11:45:33 10° NNE 11:48:53 33° E 11:52:10 10° SSE visible
02 Feb 8.0 13:19:14 10° NNW 13:21:46 18° WNW 13:24:17 10° WSW visible
03 Feb 9.5 11:17:05 10° NE 11:19:22 16° E 11:21:38 10° SE visible
03 Feb 7.0 12:49:17 10° N 12:52:39 37° WNW 12:55:59 10° SW visible
04 Feb 6.4 12:19:45 10° NNE 12:23:24 87° WNW 12:26:59 10° SSW visible
